Location: Quedlinburg
(51.7921°N, 11.1414°E)
Time: 07:44:48
(UTC+02:00)

SO-50 - Pass Details

Date: 15 March 2026
Orbit: 567 x 673 km, 64.6° (Epoch: 13 April)

Event Time Altitude Azimuth Distance (km) Brightness Sun altitude
Rises 00:03:38 0° 312° (NW) 3,021 ? -40.2°
Reaches altitude 10° 00:06:24 10° 327° (NNW) 2,112 ? -40.3°
Enters shadow 00:06:33 11° 328° (NNW) 2,067 ? -40.3°
